| time (UTC) | temp C | wind direction | speed KPH | gust KPH | rain 1hr cm | rain 24hr cm | rain mn cm | humidity % | barometer mb |
| 20260506211551 | 19 | 198 | 0.0 | 0.0 | 0.00 | 0.00 | 0.00 | 80 | 995.1 |
| 20260506210043 | 19 | 205 | 0.0 | 0.0 | 0.00 | 0.00 | 0.00 | 81 | 995.0 |
| 20260506204541 | 18 | 194 | 0.0 | 0.0 | 0.00 | 0.00 | 0.00 | 83 | 995.1 |
| 20260506203043 | 18 | 205 | 0.0 | 0.0 | 0.00 | 0.00 | 0.00 | 84 | 995.1 |
| 20260506201540 | 18 | 227 | 0.0 | 0.0 | 0.00 | 0.00 | 0.00 | 84 | 995.0 |
| 20260506200039 | 17 | 209 | 0.0 | 0.0 | 0.00 | 0.00 | 0.00 | 85 | 995.1 |
| 20260506194538 | 17 | 218 | 0.0 | 0.0 | 0.00 | 0.00 | 0.00 | 86 | 995.3 |
| 20260506193035 | 17 | 199 | 0.0 | 0.0 | 0.00 | 0.00 | 0.00 | 86 | 995.5 |
| 20260506191534 | 17 | 186 | 0.0 | 0.0 | 0.00 | 0.00 | 0.00 | 86 | 995.5 |
| 20260506190032 | 17 | 202 | 0.0 | 0.0 | 0.00 | 0.00 | 0.00 | 86 | 995.7 |
| 20260506184531 | 17 | 240 | 0.0 | 0.0 | 0.00 | 0.00 | 0.00 | 87 | 995.7 |
| 20260506183031 | 17 | 218 | 0.0 | 0.0 | 0.00 | 0.00 | 0.00 | 87 | 995.8 |
| 20260506181530 | 16 | 182 | 0.0 | 0.0 | 0.00 | 0.00 | 0.00 | 87 | 995.9 |
| 20260506180032 | 16 | 206 | 0.0 | 0.0 | 0.00 | 0.00 | 0.00 | 89 | 996.0 |
| 20260506174527 | 16 | 195 | 0.0 | 0.0 | 0.00 | 0.00 | 0.00 | 88 | 996.0 |
| 20260506173026 | 16 | 203 | 0.0 | 0.0 | 0.00 | 0.00 | 0.00 | 88 | 996.1 |
| 20260506171524 | 16 | 192 | 0.0 | 0.0 | 0.00 | 0.00 | 0.00 | 88 | 996.1 |
| 20260506170024 | 16 | 184 | 0.0 | 0.0 | 0.00 | 0.00 | 0.00 | 89 | 996.4 |
| 20260506164524 | 16 | 166 | 0.0 | 0.0 | 0.00 | 0.00 | 0.00 | 90 | 996.3 |
| 20260506163022 | 16 | 161 | 0.0 | 0.0 | 0.00 | 0.00 | 0.00 | 90 | 996.6 |
| 20260506161519 | 16 | 184 | 0.0 | 0.0 | 0.00 | 0.00 | 0.00 | 89 | 996.8 |
| 20260506160016 | 16 | 197 | 0.0 | 0.0 | 0.00 | 0.00 | 0.00 | 88 | 997.4 |
| 20260506154513 | 16 | 212 | 0.0 | 0.0 | 0.00 | 0.00 | 0.00 | 87 | 997.7 |
| 20260506153014 | 16 | 179 | 0.0 | 0.0 | 0.00 | 0.00 | 0.00 | 85 | 997.6 |
| 20260506151509 | 17 | 195 | 0.0 | 0.0 | 0.00 | 0.00 | 0.00 | 82 | 997.4 |
| 20260506150009 | 17 | 181 | 0.0 | 0.0 | 0.00 | 0.00 | 0.00 | 79 | 997.3 |
| 20260506144523 | 17 | 212 | 0.0 | 0.0 | 0.00 | 0.00 | 0.00 | 78 | 997.5 |
| 20260506143008 | 18 | 185 | 0.0 | 0.0 | 0.00 | 0.00 | 0.00 | 76 | 997.5 |
| 20260506141507 | 18 | 170 | 0.0 | 0.0 | 0.00 | 0.00 | 0.00 | 74 | 997.6 |
| 20260506140006 | 18 | 199 | 0.0 | 0.0 | 0.00 | 0.00 | 0.00 | 72 | 997.5 |
| 20260506134505 | 18 | 160 | 0.0 | 0.0 | 0.00 | 0.00 | 0.00 | 73 | 997.2 |
| 20260506133005 | 18 | 200 | 0.0 | 0.0 | 0.00 | 0.00 | 0.00 | 74 | 997.2 |
| 20260506131504 | 18 | 153 | 0.0 | 0.0 | 0.00 | 0.00 | 0.00 | 74 | 997.4 |
| 20260506130003 | 18 | 170 | 0.0 | 0.0 | 0.00 | 0.00 | 0.00 | 74 | 997.6 |
| 20260506124503 | 18 | 195 | 0.0 | 0.0 | 0.00 | 0.00 | 0.00 | 74 | 997.8 |
| 20260506123102 | 18 | 218 | 0.0 | 0.0 | 0.00 | 0.00 | 0.00 | 75 | 997.4 |
| 20260506121601 | 18 | 175 | 0.0 | 0.0 | 0.00 | 0.00 | 0.00 | 77 | 997.4 |
| 20260506120105 | 17 | 175 | 0.0 | 0.0 | 0.00 | 0.00 | 0.00 | 78 | 997.3 |
| 20260506114603 | 17 | 169 | 0.0 | 0.0 | 0.00 | 0.00 | 0.00 | 79 | 997.5 |
| 20260506113058 | 17 | 181 | 0.0 | 0.0 | 0.00 | 0.00 | 0.00 | 80 | 997.3 |
| 20260506111557 | 17 | 178 | 0.0 | 0.0 | 0.00 | 0.00 | 0.00 | 81 | 997.1 |
| 20260506110056 | 17 | 195 | 0.0 | 0.0 | 0.00 | 0.00 | 0.00 | 81 | 997.2 |
| 20260506104604 | 17 | 157 | 0.0 | 0.0 | 0.00 | 0.00 | 0.00 | 81 | 997.1 |
| 20260506103105 | 17 | 159 | 0.0 | 0.0 | 0.00 | 0.00 | 0.00 | 82 | 997.3 |
| 20260506101554 | 16 | 189 | 0.0 | 0.0 | 0.00 | 0.00 | 0.00 | 82 | 997.2 |
| 20260506100106 | 17 | 160 | 0.0 | 0.0 | 0.00 | 0.00 | 0.00 | 82 | 997.1 |
| 20260506094601 | 17 | 184 | 0.0 | 0.0 | 0.00 | 0.00 | 0.00 | 82 | 997.3 |
| 20260506093051 | 17 | 182 | 0.0 | 0.0 | 0.00 | 0.00 | 0.00 | 81 | 997.2 |
| 20260506091549 | 17 | 173 | 0.0 | 0.0 | 0.00 | 0.00 | 0.00 | 81 | 997.1 |
| 20260506090049 | 17 | 163 | 0.0 | 0.0 | 0.00 | 0.00 | 0.00 | 81 | 997.2 |
| 20260506084552 | 17 | 184 | 0.0 | 0.0 | 0.00 | 0.00 | 0.00 | 80 | 997.1 |
| 20260506083053 | 17 | 157 | 0.0 | 0.0 | 0.00 | 0.00 | 0.00 | 79 | 997.2 |
| 20260506081600 | 17 | 155 | 0.0 | 0.0 | 0.00 | 0.00 | 0.00 | 79 | 997.4 |
| 20260506073038 | 18 | 166 | 0.0 | 0.0 | 0.00 | 0.00 | 0.00 | 76 | 997.4 |
| 20260506071542 | 18 | 186 | 0.0 | 0.0 | 0.00 | 0.00 | 0.00 | 76 | 997.5 |
| 20260506061533 | 19 | 179 | 0.0 | 0.0 | 0.00 | 0.00 | 0.00 | 74 | 997.6 |
| 20260506044533 | 18 | 184 | 0.0 | 0.0 | 0.00 | 0.00 | 0.00 | 73 | 998.3 |
| 20260506043023 | 18 | 169 | 0.0 | 0.0 | 0.00 | 0.00 | 0.00 | 72 | 998.4 |
| 20260506041521 | 19 | 181 | 0.0 | 0.0 | 0.00 | 0.00 | 0.00 | 72 | 998.3 |
| 20260506040018 | 19 | 172 | 0.0 | 0.0 | 0.00 | 0.00 | 0.00 | 71 | 998.5 |
| 20260506034516 | 19 | 177 | 0.0 | 0.0 | 0.00 | 0.00 | 0.00 | 70 | 998.3 |
| 20260506033023 | 19 | 180 | 0.0 | 0.0 | 0.00 | 0.00 | 0.00 | 69 | 998.2 |
| 20260506031527 | 19 | 184 | 0.0 | 0.0 | 0.00 | 0.00 | 0.00 | 69 | 998.2 |
| 20260506030015 | 20 | 148 | 0.0 | 0.0 | 0.00 | 0.00 | 0.00 | 68 | 998.1 |
| 20260506024521 | 20 | 173 | 0.0 | 0.0 | 0.00 | 0.00 | 0.00 | 66 | 998.3 |
| 20260506023014 | 20 | 169 | 0.0 | 0.0 | 0.00 | 0.00 | 0.00 | 64 | 998.3 |
| 20260506021516 | 21 | 189 | 0.0 | 0.0 | 0.00 | 0.00 | 0.00 | 62 | 998.1 |
| 20260506020016 | 21 | 190 | 0.0 | 0.0 | 0.00 | 0.00 | 0.00 | 60 | 998.1 |
| 20260506014512 | 21 | 193 | 0.0 | 0.0 | 0.00 | 0.00 | 0.00 | 58 | 998.1 |
| 20260506013014 | 22 | 206 | 0.0 | 0.0 | 0.00 | 0.00 | 0.00 | 56 | 997.8 |
| 20260506011517 | 22 | 168 | 0.0 | 0.0 | 0.00 | 0.00 | 0.00 | 54 | 997.7 |
| 20260506010031 | 22 | 176 | 0.0 | 0.0 | 0.00 | 0.00 | 0.00 | 53 | 997.6 |
| 20260506004511 | 23 | 181 | 0.0 | 0.0 | 0.00 | 0.00 | 0.00 | 52 | 997.4 |
| 20260506003010 | 23 | 184 | 0.0 | 0.0 | 0.00 | 0.00 | 0.00 | 51 | 997.3 |
| 20260506001510 | 23 | 195 | 0.0 | 0.0 | 0.00 | 0.00 | 0.00 | 49 | 997.2 |
| 20260506000013 | 23 | 180 | 0.0 | 0.0 | 0.00 | 0.00 | 0.00 | 49 | 996.9 |
| 20260505234508 | 24 | 188 | 0.0 | 0.0 | 0.00 | 0.00 | 0.00 | 49 | 996.8 |
| 20260505233009 | 24 | 167 | 0.0 | 0.0 | 0.00 | 0.00 | 0.00 | 49 | 996.8 |
| 20260505231511 | 25 | 182 | 0.0 | 0.0 | 0.00 | 0.00 | 0.00 | 48 | 996.8 |
| 20260505230008 | 25 | 161 | 0.0 | 0.0 | 0.00 | 0.00 | 0.00 | 47 | 996.7 |
| 20260505224507 | 25 | 166 | 0.0 | 0.0 | 0.00 | 0.00 | 0.00 | 47 | 996.6 |
| 20260505223005 | 25 | 187 | 0.0 | 0.0 | 0.00 | 0.00 | 0.00 | 45 | 996.5 |
| 20260505221507 | 26 | 189 | 0.0 | 0.0 | 0.00 | 0.00 | 0.00 | 42 | 996.7 |
| 20260505220006 | 26 | 203 | 0.0 | 0.0 | 0.00 | 0.00 | 0.00 | 41 | 996.5 |
| 20260505214505 | 26 | 184 | 0.0 | 0.0 | 0.00 | 0.00 | 0.00 | 40 | 996.5 |
| 20260505213008 | 26 | 188 | 0.0 | 0.0 | 0.00 | 0.00 | 0.00 | 39 | 996.4 |